Terug naar catalogus

PSLV R/B

LostLEO
NORAD 40937·ROCKET BODY·🇮🇳 India

Gelanceerd Sep 28, 2015 vanaf Satish Dhawan Space Centre

Loading…

Volgende Passages (komende 24 uur)

TLE

VerouderdSource: Space-Track

Epoch: Jan 5, 2024, 13:54 UTC

1 40937U 15052H   24005.57953228  .00002185  00000-0  17696-3 0  9996
2 40937   5.9553 291.4476 0029383 297.1563  62.5571 14.83150793448613

Volg PSLV R/B in realtime met AllMySat

Download on the App Store